Kaltag, AK

4:09 PM AKDT on March 29, 2017 (GMT -0800)
Kaltag

Weather History for PAKV - January, 2013

Change the Weather History Date:

Friday, January 25, 2013

  Actual Average (PAGA) Record (PAGA)
Temperature  
Mean Temperature -20 °F -  
Max Temperature -13 °F -1 °F 40 °F (1991)
Min Temperature -26 °F -16 °F -60 °F (1989)
Degree Days  
Heating Degree Days 84    
Moisture  
Dew Point -29 °F    
Average Humidity 71    
Maximum Humidity 74    
Minimum Humidity 61    
Precipitation  
Precipitation 0.00 in - - ()
Sea Level Pressure  
Sea Level Pressure 30.18 in    
Wind  
Wind Speed 2 mph (SW)    
Max Wind Speed 6 mph    
Max Gust Speed -    
Visibility 10 miles    
Events      
Averages and records for this station are not official NWS values.
T = Trace of Precipitation, MM = Missing Value Source: NWS Daily Summary

Daily Weather History Graph

Daily Weather History Graph

Search for Another Location

Airport or City:

Trip Planner

Search our weather history database for the weather conditions in past years. The results will help you decide how hot, cold, wet, or windy it might be!

Date:

Astronomy

Jan. 25, 2013 Rise Set
Actual Time 10:36 AM AKST 4:59 PM AKST
Civil Twilight 9:34 AM AKST 6:00 PM AKST
Nautical Twilight 8:33 AM AKST 7:02 PM AKST
Astronomical Twilight 7:36 AM AKST 7:58 PM AKST
Moon 4:11 PM AKST (1/25) 9:23 AM AKST (1/25)
Length of Visible Light 8h 25m
Length of Day
6h 23m
Waxing Gibbous, 98% of the Moon is Illuminated
Jan 25
Waxing Gibbous
Jan 26
Full
Feb 3
Last Quarter
Feb 9
New
Feb 17
First Quarter

Hourly Weather History & Observations

Time (AKST) Temp. Windchill Dew Point Humidity Pressure Visibility Wind Dir Wind Speed Gust Speed Precip Events Conditions
12:53 AM -13.0 °F - -23.1 °F 61% 30.17 in 10.0 mi Calm Calm - N/A   Clear
1:53 AM -18.9 °F - -26.0 °F 70% 30.17 in 10.0 mi Calm Calm - N/A   Clear
2:53 AM -23.1 °F - -29.0 °F 74% 30.17 in 10.0 mi Calm Calm - N/A   Clear
3:53 AM -25.1 °F - -31.0 °F 74% 30.17 in 10.0 mi Calm Calm - N/A   Clear
4:53 AM -23.1 °F -36.8 °F -29.0 °F 74% 30.17 in 10.0 mi SW 4.6 mph - N/A   Clear
5:53 AM -22.0 °F -35.6 °F -29.0 °F 70% 30.17 in 10.0 mi SW 4.6 mph - N/A   Clear
6:53 AM -24.0 °F -37.9 °F -29.9 °F 74% 30.17 in 10.0 mi SW 4.6 mph - N/A   Clear
7:53 AM -24.0 °F -37.9 °F -31.0 °F 70% 30.16 in 10.0 mi WSW 4.6 mph - N/A   Clear
8:53 AM -24.0 °F -37.9 °F -29.9 °F 74% 30.15 in 10.0 mi SW 4.6 mph - N/A   Clear
9:53 AM -25.1 °F -36.5 °F -31.0 °F 74% 30.15 in 10.0 mi SW 3.5 mph - N/A   Clear
10:53 AM -26.0 °F -42.4 °F -32.1 °F 73% 30.17 in 10.0 mi SW 5.8 mph - N/A   Clear
11:53 AM -24.0 °F -40.0 °F -29.9 °F 74% 30.17 in 10.0 mi SW 5.8 mph - N/A   Clear
12:53 PM -20.9 °F -34.3 °F -27.9 °F 70% 30.17 in 10.0 mi SW 4.6 mph - N/A   Clear
1:53 PM -17.0 °F -27.2 °F -25.1 °F 67% 30.17 in 10.0 mi WSW 3.5 mph - N/A   Clear
2:53 PM -14.1 °F - -23.1 °F 64% 30.17 in 10.0 mi Calm Calm - N/A   Clear
3:53 PM -18.0 °F - -24.0 °F 74% 30.18 in 10.0 mi Calm Calm - N/A   Clear
4:53 PM -20.9 °F - -27.9 °F 70% 30.19 in 10.0 mi Calm Calm - N/A   Clear
5:53 PM -24.0 °F -35.2 °F -31.0 °F 70% 30.20 in 10.0 mi SW 3.5 mph - N/A   Clear
6:53 PM -25.1 °F -41.3 °F -31.0 °F 74% 30.19 in 10.0 mi SW 5.8 mph - N/A   Clear
7:53 PM -20.9 °F -36.4 °F -27.0 °F 73% 30.20 in 10.0 mi SW 5.8 mph - N/A   Clear
8:53 PM -22.0 °F -35.6 °F -27.9 °F 74% 30.20 in 10.0 mi SW 4.6 mph - N/A   Clear
9:53 PM -23.1 °F -36.8 °F -29.0 °F 74% 30.21 in 10.0 mi SW 4.6 mph - N/A   Clear
10:53 PM -26.0 °F -37.5 °F -34.1 °F 66% 30.22 in 10.0 mi SW 3.5 mph - N/A   Clear
11:53 PM -26.0 °F -40.2 °F -32.1 °F 73% 30.22 in 10.0 mi SW 4.6 mph - 0.00 in   Clear